<?xml version="1.0"?>
<gpx xmlns="http://www.topografix.com/GPX/1/1" xmlns:xsi="http://www.w3.org/2001/XMLSchema-instance" version="1.1" creator="GPX RubyGem 1.0.0 -- http://dougfales.github.io/gpx/" xsi:schemaLocation="http://www.topografix.com/GPX/1/1 http://www.topografix.com/GPX/1/1/gpx.xsd">
  <metadata>
    <name/>
    <time>2026-05-08T06:09:18+00:00</time>
    <bound minlat="90.0" minlon="180.0" maxlat="-90.0" maxlon="-180.0"/>
  </metadata>
  <trk>
    <name/>
    <trkseg>
      <trkpt lat="44.393976" lon="9.097364">
        <time>1970-01-01T00:00:00+00:00</time>
        <ele>295.0</ele>
      </trkpt>
      <trkpt lat="44.394004" lon="9.097343">
        <time>1970-01-01T00:00:00+00:00</time>
        <ele>295.0</ele>
      </trkpt>
      <trkpt lat="44.394069" lon="9.097427">
        <time>1970-01-01T00:00:00+00:00</time>
        <ele>300.0</ele>
      </trkpt>
      <trkpt lat="44.394173" lon="9.097356">
        <time>1970-01-01T00:00:00+00:00</time>
        <ele>302.0</ele>
      </trkpt>
      <trkpt lat="44.394421" lon="9.097127">
        <time>1970-01-01T00:00:00+00:00</time>
        <ele>304.0</ele>
      </trkpt>
      <trkpt lat="44.394578" lon="9.097016">
        <time>1970-01-01T00:00:00+00:00</time>
        <ele>306.0</ele>
      </trkpt>
      <trkpt lat="44.394576" lon="9.096982">
        <time>1970-01-01T00:00:00+00:00</time>
        <ele>305.0</ele>
      </trkpt>
      <trkpt lat="44.394661" lon="9.09692">
        <time>1970-01-01T00:00:00+00:00</time>
        <ele>306.0</ele>
      </trkpt>
      <trkpt lat="44.394618" lon="9.096773">
        <time>1970-01-01T00:00:00+00:00</time>
        <ele>301.0</ele>
      </trkpt>
      <trkpt lat="44.394801" lon="9.096563">
        <time>1970-01-01T00:00:00+00:00</time>
        <ele>301.0</ele>
      </trkpt>
      <trkpt lat="44.394822" lon="9.096398">
        <time>1970-01-01T00:00:00+00:00</time>
        <ele>297.0</ele>
      </trkpt>
      <trkpt lat="44.39494" lon="9.096063">
        <time>1970-01-01T00:00:00+00:00</time>
        <ele>293.0</ele>
      </trkpt>
      <trkpt lat="44.394887" lon="9.095958">
        <time>1970-01-01T00:00:00+00:00</time>
        <ele>290.0</ele>
      </trkpt>
      <trkpt lat="44.394803" lon="9.095912">
        <time>1970-01-01T00:00:00+00:00</time>
        <ele>287.0</ele>
      </trkpt>
      <trkpt lat="44.394683" lon="9.095916">
        <time>1970-01-01T00:00:00+00:00</time>
        <ele>283.0</ele>
      </trkpt>
      <trkpt lat="44.394604" lon="9.095886">
        <time>1970-01-01T00:00:00+00:00</time>
        <ele>281.0</ele>
      </trkpt>
      <trkpt lat="44.394577" lon="9.095853">
        <time>1970-01-01T00:00:00+00:00</time>
        <ele>280.0</ele>
      </trkpt>
      <trkpt lat="44.394499" lon="9.095764">
        <time>1970-01-01T00:00:00+00:00</time>
        <ele>278.0</ele>
      </trkpt>
      <trkpt lat="44.394358" lon="9.095528">
        <time>1970-01-01T00:00:00+00:00</time>
        <ele>278.0</ele>
      </trkpt>
      <trkpt lat="44.394265" lon="9.095328">
        <time>1970-01-01T00:00:00+00:00</time>
        <ele>279.0</ele>
      </trkpt>
      <trkpt lat="44.394236" lon="9.095243">
        <time>1970-01-01T00:00:00+00:00</time>
        <ele>280.0</ele>
      </trkpt>
      <trkpt lat="44.394232" lon="9.095184">
        <time>1970-01-01T00:00:00+00:00</time>
        <ele>281.0</ele>
      </trkpt>
      <trkpt lat="44.394128" lon="9.094963">
        <time>1970-01-01T00:00:00+00:00</time>
        <ele>287.0</ele>
      </trkpt>
      <trkpt lat="44.394071" lon="9.094938">
        <time>1970-01-01T00:00:00+00:00</time>
        <ele>287.0</ele>
      </trkpt>
      <trkpt lat="44.393915" lon="9.095071">
        <time>1970-01-01T00:00:00+00:00</time>
        <ele>282.0</ele>
      </trkpt>
      <trkpt lat="44.39375" lon="9.094989">
        <time>1970-01-01T00:00:00+00:00</time>
        <ele>286.0</ele>
      </trkpt>
      <trkpt lat="44.393647" lon="9.094998">
        <time>1970-01-01T00:00:00+00:00</time>
        <ele>285.0</ele>
      </trkpt>
      <trkpt lat="44.393319" lon="9.094961">
        <time>1970-01-01T00:00:00+00:00</time>
        <ele>291.0</ele>
      </trkpt>
      <trkpt lat="44.393217" lon="9.094935">
        <time>1970-01-01T00:00:00+00:00</time>
        <ele>295.0</ele>
      </trkpt>
      <trkpt lat="44.3931" lon="9.094872">
        <time>1970-01-01T00:00:00+00:00</time>
        <ele>301.0</ele>
      </trkpt>
      <trkpt lat="44.392985" lon="9.094883">
        <time>1970-01-01T00:00:00+00:00</time>
        <ele>304.0</ele>
      </trkpt>
      <trkpt lat="44.392865" lon="9.09485">
        <time>1970-01-01T00:00:00+00:00</time>
        <ele>310.0</ele>
      </trkpt>
      <trkpt lat="44.392805" lon="9.094865">
        <time>1970-01-01T00:00:00+00:00</time>
        <ele>311.0</ele>
      </trkpt>
      <trkpt lat="44.392621" lon="9.094985">
        <time>1970-01-01T00:00:00+00:00</time>
        <ele>310.0</ele>
      </trkpt>
      <trkpt lat="44.392552" lon="9.094984">
        <time>1970-01-01T00:00:00+00:00</time>
        <ele>311.0</ele>
      </trkpt>
      <trkpt lat="44.392486" lon="9.094879">
        <time>1970-01-01T00:00:00+00:00</time>
        <ele>314.0</ele>
      </trkpt>
      <trkpt lat="44.392463" lon="9.094703">
        <time>1970-01-01T00:00:00+00:00</time>
        <ele>318.0</ele>
      </trkpt>
      <trkpt lat="44.39243" lon="9.094622">
        <time>1970-01-01T00:00:00+00:00</time>
        <ele>319.0</ele>
      </trkpt>
      <trkpt lat="44.392347" lon="9.094414">
        <time>1970-01-01T00:00:00+00:00</time>
        <ele>320.0</ele>
      </trkpt>
      <trkpt lat="44.392251" lon="9.094113">
        <time>1970-01-01T00:00:00+00:00</time>
        <ele>322.0</ele>
      </trkpt>
      <trkpt lat="44.392182" lon="9.094001">
        <time>1970-01-01T00:00:00+00:00</time>
        <ele>321.0</ele>
      </trkpt>
      <trkpt lat="44.392101" lon="9.093916">
        <time>1970-01-01T00:00:00+00:00</time>
        <ele>318.0</ele>
      </trkpt>
      <trkpt lat="44.392007" lon="9.093599">
        <time>1970-01-01T00:00:00+00:00</time>
        <ele>321.0</ele>
      </trkpt>
      <trkpt lat="44.3918" lon="9.093011">
        <time>1970-01-01T00:00:00+00:00</time>
        <ele>325.0</ele>
      </trkpt>
      <trkpt lat="44.391672" lon="9.09299">
        <time>1970-01-01T00:00:00+00:00</time>
        <ele>325.0</ele>
      </trkpt>
      <trkpt lat="44.391612" lon="9.092936">
        <time>1970-01-01T00:00:00+00:00</time>
        <ele>328.0</ele>
      </trkpt>
      <trkpt lat="44.391553" lon="9.09294">
        <time>1970-01-01T00:00:00+00:00</time>
        <ele>329.0</ele>
      </trkpt>
      <trkpt lat="44.391442" lon="9.093053">
        <time>1970-01-01T00:00:00+00:00</time>
        <ele>324.0</ele>
      </trkpt>
      <trkpt lat="44.391303" lon="9.093142">
        <time>1970-01-01T00:00:00+00:00</time>
        <ele>324.0</ele>
      </trkpt>
      <trkpt lat="44.390829" lon="9.093386">
        <time>1970-01-01T00:00:00+00:00</time>
        <ele>334.0</ele>
      </trkpt>
      <trkpt lat="44.390394" lon="9.093694">
        <time>1970-01-01T00:00:00+00:00</time>
        <ele>343.0</ele>
      </trkpt>
      <trkpt lat="44.39027" lon="9.09384">
        <time>1970-01-01T00:00:00+00:00</time>
        <ele>343.0</ele>
      </trkpt>
      <trkpt lat="44.390042" lon="9.094025">
        <time>1970-01-01T00:00:00+00:00</time>
        <ele>340.0</ele>
      </trkpt>
      <trkpt lat="44.389973" lon="9.094042">
        <time>1970-01-01T00:00:00+00:00</time>
        <ele>338.0</ele>
      </trkpt>
      <trkpt lat="44.389954" lon="9.094023">
        <time>1970-01-01T00:00:00+00:00</time>
        <ele>339.0</ele>
      </trkpt>
      <trkpt lat="44.389886" lon="9.093914">
        <time>1970-01-01T00:00:00+00:00</time>
        <ele>341.0</ele>
      </trkpt>
      <trkpt lat="44.389845" lon="9.093744">
        <time>1970-01-01T00:00:00+00:00</time>
        <ele>344.0</ele>
      </trkpt>
      <trkpt lat="44.389804" lon="9.093651">
        <time>1970-01-01T00:00:00+00:00</time>
        <ele>344.0</ele>
      </trkpt>
      <trkpt lat="44.389743" lon="9.0934">
        <time>1970-01-01T00:00:00+00:00</time>
        <ele>347.0</ele>
      </trkpt>
      <trkpt lat="44.389733" lon="9.093304">
        <time>1970-01-01T00:00:00+00:00</time>
        <ele>349.0</ele>
      </trkpt>
      <trkpt lat="44.389684" lon="9.093155">
        <time>1970-01-01T00:00:00+00:00</time>
        <ele>350.0</ele>
      </trkpt>
      <trkpt lat="44.389656" lon="9.092986">
        <time>1970-01-01T00:00:00+00:00</time>
        <ele>353.0</ele>
      </trkpt>
      <trkpt lat="44.389535" lon="9.092682">
        <time>1970-01-01T00:00:00+00:00</time>
        <ele>362.0</ele>
      </trkpt>
      <trkpt lat="44.38945" lon="9.092584">
        <time>1970-01-01T00:00:00+00:00</time>
        <ele>362.0</ele>
      </trkpt>
      <trkpt lat="44.389435" lon="9.092546">
        <time>1970-01-01T00:00:00+00:00</time>
        <ele>363.0</ele>
      </trkpt>
      <trkpt lat="44.389437" lon="9.092491">
        <time>1970-01-01T00:00:00+00:00</time>
        <ele>365.0</ele>
      </trkpt>
      <trkpt lat="44.389414" lon="9.092422">
        <time>1970-01-01T00:00:00+00:00</time>
        <ele>365.0</ele>
      </trkpt>
      <trkpt lat="44.389393" lon="9.092265">
        <time>1970-01-01T00:00:00+00:00</time>
        <ele>367.0</ele>
      </trkpt>
      <trkpt lat="44.389369" lon="9.092181">
        <time>1970-01-01T00:00:00+00:00</time>
        <ele>368.0</ele>
      </trkpt>
      <trkpt lat="44.389294" lon="9.092042">
        <time>1970-01-01T00:00:00+00:00</time>
        <ele>367.0</ele>
      </trkpt>
      <trkpt lat="44.389257" lon="9.091763">
        <time>1970-01-01T00:00:00+00:00</time>
        <ele>372.0</ele>
      </trkpt>
      <trkpt lat="44.389258" lon="9.09158">
        <time>1970-01-01T00:00:00+00:00</time>
        <ele>376.0</ele>
      </trkpt>
      <trkpt lat="44.389168" lon="9.09146">
        <time>1970-01-01T00:00:00+00:00</time>
        <ele>372.0</ele>
      </trkpt>
      <trkpt lat="44.389068" lon="9.091137">
        <time>1970-01-01T00:00:00+00:00</time>
        <ele>377.0</ele>
      </trkpt>
      <trkpt lat="44.389058" lon="9.09101">
        <time>1970-01-01T00:00:00+00:00</time>
        <ele>382.0</ele>
      </trkpt>
      <trkpt lat="44.389073" lon="9.090844">
        <time>1970-01-01T00:00:00+00:00</time>
        <ele>389.0</ele>
      </trkpt>
      <trkpt lat="44.389002" lon="9.090399">
        <time>1970-01-01T00:00:00+00:00</time>
        <ele>400.0</ele>
      </trkpt>
      <trkpt lat="44.388942" lon="9.0902">
        <time>1970-01-01T00:00:00+00:00</time>
        <ele>403.0</ele>
      </trkpt>
      <trkpt lat="44.388874" lon="9.090088">
        <time>1970-01-01T00:00:00+00:00</time>
        <ele>403.0</ele>
      </trkpt>
      <trkpt lat="44.388774" lon="9.090001">
        <time>1970-01-01T00:00:00+00:00</time>
        <ele>399.0</ele>
      </trkpt>
      <trkpt lat="44.388579" lon="9.089873">
        <time>1970-01-01T00:00:00+00:00</time>
        <ele>395.0</ele>
      </trkpt>
      <trkpt lat="44.388551" lon="9.089807">
        <time>1970-01-01T00:00:00+00:00</time>
        <ele>396.0</ele>
      </trkpt>
      <trkpt lat="44.388397" lon="9.089682">
        <time>1970-01-01T00:00:00+00:00</time>
        <ele>402.0</ele>
      </trkpt>
      <trkpt lat="44.388341" lon="9.089586">
        <time>1970-01-01T00:00:00+00:00</time>
        <ele>407.0</ele>
      </trkpt>
      <trkpt lat="44.387886" lon="9.089476">
        <time>1970-01-01T00:00:00+00:00</time>
        <ele>415.0</ele>
      </trkpt>
      <trkpt lat="44.387669" lon="9.089314">
        <time>1970-01-01T00:00:00+00:00</time>
        <ele>423.0</ele>
      </trkpt>
      <trkpt lat="44.387602" lon="9.089288">
        <time>1970-01-01T00:00:00+00:00</time>
        <ele>424.0</ele>
      </trkpt>
      <trkpt lat="44.387354" lon="9.089293">
        <time>1970-01-01T00:00:00+00:00</time>
        <ele>423.0</ele>
      </trkpt>
      <trkpt lat="44.387159" lon="9.089261">
        <time>1970-01-01T00:00:00+00:00</time>
        <ele>422.0</ele>
      </trkpt>
      <trkpt lat="44.386936" lon="9.089182">
        <time>1970-01-01T00:00:00+00:00</time>
        <ele>419.0</ele>
      </trkpt>
      <trkpt lat="44.386787" lon="9.088987">
        <time>1970-01-01T00:00:00+00:00</time>
        <ele>424.0</ele>
      </trkpt>
      <trkpt lat="44.386524" lon="9.088851">
        <time>1970-01-01T00:00:00+00:00</time>
        <ele>423.0</ele>
      </trkpt>
      <trkpt lat="44.38619" lon="9.088624">
        <time>1970-01-01T00:00:00+00:00</time>
        <ele>426.0</ele>
      </trkpt>
      <trkpt lat="44.386019" lon="9.088468">
        <time>1970-01-01T00:00:00+00:00</time>
        <ele>434.0</ele>
      </trkpt>
      <trkpt lat="44.385922" lon="9.088328">
        <time>1970-01-01T00:00:00+00:00</time>
        <ele>439.0</ele>
      </trkpt>
      <trkpt lat="44.385662" lon="9.088335">
        <time>1970-01-01T00:00:00+00:00</time>
        <ele>442.0</ele>
      </trkpt>
      <trkpt lat="44.385605" lon="9.088292">
        <time>1970-01-01T00:00:00+00:00</time>
        <ele>444.0</ele>
      </trkpt>
      <trkpt lat="44.385219" lon="9.088311">
        <time>1970-01-01T00:00:00+00:00</time>
        <ele>456.0</ele>
      </trkpt>
      <trkpt lat="44.385097" lon="9.088357">
        <time>1970-01-01T00:00:00+00:00</time>
        <ele>459.0</ele>
      </trkpt>
      <trkpt lat="44.384986" lon="9.088354">
        <time>1970-01-01T00:00:00+00:00</time>
        <ele>463.0</ele>
      </trkpt>
      <trkpt lat="44.384907" lon="9.088319">
        <time>1970-01-01T00:00:00+00:00</time>
        <ele>467.0</ele>
      </trkpt>
      <trkpt lat="44.384654" lon="9.088416">
        <time>1970-01-01T00:00:00+00:00</time>
        <ele>474.0</ele>
      </trkpt>
      <trkpt lat="44.384483" lon="9.088504">
        <time>1970-01-01T00:00:00+00:00</time>
        <ele>476.0</ele>
      </trkpt>
      <trkpt lat="44.384386" lon="9.088577">
        <time>1970-01-01T00:00:00+00:00</time>
        <ele>476.0</ele>
      </trkpt>
      <trkpt lat="44.384386" lon="9.088577">
        <time>1970-01-01T00:00:00+00:00</time>
        <ele>476.0</ele>
      </trkpt>
      <trkpt lat="44.384483" lon="9.088504">
        <time>1970-01-01T00:00:00+00:00</time>
        <ele>476.0</ele>
      </trkpt>
      <trkpt lat="44.384654" lon="9.088416">
        <time>1970-01-01T00:00:00+00:00</time>
        <ele>474.0</ele>
      </trkpt>
      <trkpt lat="44.384907" lon="9.088319">
        <time>1970-01-01T00:00:00+00:00</time>
        <ele>467.0</ele>
      </trkpt>
      <trkpt lat="44.384986" lon="9.088354">
        <time>1970-01-01T00:00:00+00:00</time>
        <ele>463.0</ele>
      </trkpt>
      <trkpt lat="44.385097" lon="9.088357">
        <time>1970-01-01T00:00:00+00:00</time>
        <ele>459.0</ele>
      </trkpt>
      <trkpt lat="44.385219" lon="9.088311">
        <time>1970-01-01T00:00:00+00:00</time>
        <ele>456.0</ele>
      </trkpt>
      <trkpt lat="44.385605" lon="9.088292">
        <time>1970-01-01T00:00:00+00:00</time>
        <ele>444.0</ele>
      </trkpt>
      <trkpt lat="44.385662" lon="9.088335">
        <time>1970-01-01T00:00:00+00:00</time>
        <ele>442.0</ele>
      </trkpt>
      <trkpt lat="44.385922" lon="9.088328">
        <time>1970-01-01T00:00:00+00:00</time>
        <ele>439.0</ele>
      </trkpt>
      <trkpt lat="44.386019" lon="9.088468">
        <time>1970-01-01T00:00:00+00:00</time>
        <ele>434.0</ele>
      </trkpt>
      <trkpt lat="44.38619" lon="9.088624">
        <time>1970-01-01T00:00:00+00:00</time>
        <ele>426.0</ele>
      </trkpt>
      <trkpt lat="44.386524" lon="9.088851">
        <time>1970-01-01T00:00:00+00:00</time>
        <ele>423.0</ele>
      </trkpt>
      <trkpt lat="44.386787" lon="9.088987">
        <time>1970-01-01T00:00:00+00:00</time>
        <ele>424.0</ele>
      </trkpt>
      <trkpt lat="44.386936" lon="9.089182">
        <time>1970-01-01T00:00:00+00:00</time>
        <ele>419.0</ele>
      </trkpt>
      <trkpt lat="44.387159" lon="9.089261">
        <time>1970-01-01T00:00:00+00:00</time>
        <ele>422.0</ele>
      </trkpt>
      <trkpt lat="44.387354" lon="9.089293">
        <time>1970-01-01T00:00:00+00:00</time>
        <ele>423.0</ele>
      </trkpt>
      <trkpt lat="44.387602" lon="9.089288">
        <time>1970-01-01T00:00:00+00:00</time>
        <ele>424.0</ele>
      </trkpt>
      <trkpt lat="44.387669" lon="9.089314">
        <time>1970-01-01T00:00:00+00:00</time>
        <ele>423.0</ele>
      </trkpt>
      <trkpt lat="44.387886" lon="9.089476">
        <time>1970-01-01T00:00:00+00:00</time>
        <ele>415.0</ele>
      </trkpt>
      <trkpt lat="44.388341" lon="9.089586">
        <time>1970-01-01T00:00:00+00:00</time>
        <ele>407.0</ele>
      </trkpt>
      <trkpt lat="44.388397" lon="9.089682">
        <time>1970-01-01T00:00:00+00:00</time>
        <ele>402.0</ele>
      </trkpt>
      <trkpt lat="44.388551" lon="9.089807">
        <time>1970-01-01T00:00:00+00:00</time>
        <ele>396.0</ele>
      </trkpt>
      <trkpt lat="44.388579" lon="9.089873">
        <time>1970-01-01T00:00:00+00:00</time>
        <ele>395.0</ele>
      </trkpt>
      <trkpt lat="44.388774" lon="9.090001">
        <time>1970-01-01T00:00:00+00:00</time>
        <ele>399.0</ele>
      </trkpt>
      <trkpt lat="44.388874" lon="9.090088">
        <time>1970-01-01T00:00:00+00:00</time>
        <ele>403.0</ele>
      </trkpt>
      <trkpt lat="44.388942" lon="9.0902">
        <time>1970-01-01T00:00:00+00:00</time>
        <ele>403.0</ele>
      </trkpt>
      <trkpt lat="44.389002" lon="9.090399">
        <time>1970-01-01T00:00:00+00:00</time>
        <ele>400.0</ele>
      </trkpt>
      <trkpt lat="44.389073" lon="9.090844">
        <time>1970-01-01T00:00:00+00:00</time>
        <ele>389.0</ele>
      </trkpt>
      <trkpt lat="44.389058" lon="9.09101">
        <time>1970-01-01T00:00:00+00:00</time>
        <ele>382.0</ele>
      </trkpt>
      <trkpt lat="44.389068" lon="9.091137">
        <time>1970-01-01T00:00:00+00:00</time>
        <ele>377.0</ele>
      </trkpt>
      <trkpt lat="44.389168" lon="9.09146">
        <time>1970-01-01T00:00:00+00:00</time>
        <ele>372.0</ele>
      </trkpt>
      <trkpt lat="44.389258" lon="9.09158">
        <time>1970-01-01T00:00:00+00:00</time>
        <ele>376.0</ele>
      </trkpt>
      <trkpt lat="44.389257" lon="9.091763">
        <time>1970-01-01T00:00:00+00:00</time>
        <ele>372.0</ele>
      </trkpt>
      <trkpt lat="44.389294" lon="9.092042">
        <time>1970-01-01T00:00:00+00:00</time>
        <ele>367.0</ele>
      </trkpt>
      <trkpt lat="44.389369" lon="9.092181">
        <time>1970-01-01T00:00:00+00:00</time>
        <ele>368.0</ele>
      </trkpt>
      <trkpt lat="44.389393" lon="9.092265">
        <time>1970-01-01T00:00:00+00:00</time>
        <ele>367.0</ele>
      </trkpt>
      <trkpt lat="44.389414" lon="9.092422">
        <time>1970-01-01T00:00:00+00:00</time>
        <ele>365.0</ele>
      </trkpt>
      <trkpt lat="44.389437" lon="9.092491">
        <time>1970-01-01T00:00:00+00:00</time>
        <ele>365.0</ele>
      </trkpt>
      <trkpt lat="44.389435" lon="9.092546">
        <time>1970-01-01T00:00:00+00:00</time>
        <ele>363.0</ele>
      </trkpt>
      <trkpt lat="44.38945" lon="9.092584">
        <time>1970-01-01T00:00:00+00:00</time>
        <ele>362.0</ele>
      </trkpt>
      <trkpt lat="44.389535" lon="9.092682">
        <time>1970-01-01T00:00:00+00:00</time>
        <ele>362.0</ele>
      </trkpt>
      <trkpt lat="44.389656" lon="9.092986">
        <time>1970-01-01T00:00:00+00:00</time>
        <ele>353.0</ele>
      </trkpt>
      <trkpt lat="44.389684" lon="9.093155">
        <time>1970-01-01T00:00:00+00:00</time>
        <ele>350.0</ele>
      </trkpt>
      <trkpt lat="44.389733" lon="9.093304">
        <time>1970-01-01T00:00:00+00:00</time>
        <ele>349.0</ele>
      </trkpt>
      <trkpt lat="44.389743" lon="9.0934">
        <time>1970-01-01T00:00:00+00:00</time>
        <ele>347.0</ele>
      </trkpt>
      <trkpt lat="44.389804" lon="9.093651">
        <time>1970-01-01T00:00:00+00:00</time>
        <ele>344.0</ele>
      </trkpt>
      <trkpt lat="44.389845" lon="9.093744">
        <time>1970-01-01T00:00:00+00:00</time>
        <ele>344.0</ele>
      </trkpt>
      <trkpt lat="44.389886" lon="9.093914">
        <time>1970-01-01T00:00:00+00:00</time>
        <ele>341.0</ele>
      </trkpt>
      <trkpt lat="44.389954" lon="9.094023">
        <time>1970-01-01T00:00:00+00:00</time>
        <ele>339.0</ele>
      </trkpt>
      <trkpt lat="44.389973" lon="9.094042">
        <time>1970-01-01T00:00:00+00:00</time>
        <ele>338.0</ele>
      </trkpt>
      <trkpt lat="44.390042" lon="9.094025">
        <time>1970-01-01T00:00:00+00:00</time>
        <ele>340.0</ele>
      </trkpt>
      <trkpt lat="44.39027" lon="9.09384">
        <time>1970-01-01T00:00:00+00:00</time>
        <ele>343.0</ele>
      </trkpt>
      <trkpt lat="44.390394" lon="9.093694">
        <time>1970-01-01T00:00:00+00:00</time>
        <ele>343.0</ele>
      </trkpt>
      <trkpt lat="44.390829" lon="9.093386">
        <time>1970-01-01T00:00:00+00:00</time>
        <ele>334.0</ele>
      </trkpt>
      <trkpt lat="44.391303" lon="9.093142">
        <time>1970-01-01T00:00:00+00:00</time>
        <ele>324.0</ele>
      </trkpt>
      <trkpt lat="44.391442" lon="9.093053">
        <time>1970-01-01T00:00:00+00:00</time>
        <ele>324.0</ele>
      </trkpt>
      <trkpt lat="44.391553" lon="9.09294">
        <time>1970-01-01T00:00:00+00:00</time>
        <ele>329.0</ele>
      </trkpt>
      <trkpt lat="44.391612" lon="9.092936">
        <time>1970-01-01T00:00:00+00:00</time>
        <ele>328.0</ele>
      </trkpt>
      <trkpt lat="44.391672" lon="9.09299">
        <time>1970-01-01T00:00:00+00:00</time>
        <ele>325.0</ele>
      </trkpt>
      <trkpt lat="44.3918" lon="9.093011">
        <time>1970-01-01T00:00:00+00:00</time>
        <ele>325.0</ele>
      </trkpt>
      <trkpt lat="44.392007" lon="9.093599">
        <time>1970-01-01T00:00:00+00:00</time>
        <ele>321.0</ele>
      </trkpt>
      <trkpt lat="44.392101" lon="9.093916">
        <time>1970-01-01T00:00:00+00:00</time>
        <ele>318.0</ele>
      </trkpt>
      <trkpt lat="44.392182" lon="9.094001">
        <time>1970-01-01T00:00:00+00:00</time>
        <ele>321.0</ele>
      </trkpt>
      <trkpt lat="44.392251" lon="9.094113">
        <time>1970-01-01T00:00:00+00:00</time>
        <ele>322.0</ele>
      </trkpt>
      <trkpt lat="44.392347" lon="9.094414">
        <time>1970-01-01T00:00:00+00:00</time>
        <ele>320.0</ele>
      </trkpt>
      <trkpt lat="44.39243" lon="9.094622">
        <time>1970-01-01T00:00:00+00:00</time>
        <ele>319.0</ele>
      </trkpt>
      <trkpt lat="44.392463" lon="9.094703">
        <time>1970-01-01T00:00:00+00:00</time>
        <ele>318.0</ele>
      </trkpt>
      <trkpt lat="44.392486" lon="9.094879">
        <time>1970-01-01T00:00:00+00:00</time>
        <ele>314.0</ele>
      </trkpt>
      <trkpt lat="44.392552" lon="9.094984">
        <time>1970-01-01T00:00:00+00:00</time>
        <ele>311.0</ele>
      </trkpt>
      <trkpt lat="44.392621" lon="9.094985">
        <time>1970-01-01T00:00:00+00:00</time>
        <ele>310.0</ele>
      </trkpt>
      <trkpt lat="44.392805" lon="9.094865">
        <time>1970-01-01T00:00:00+00:00</time>
        <ele>311.0</ele>
      </trkpt>
      <trkpt lat="44.392865" lon="9.09485">
        <time>1970-01-01T00:00:00+00:00</time>
        <ele>310.0</ele>
      </trkpt>
      <trkpt lat="44.392985" lon="9.094883">
        <time>1970-01-01T00:00:00+00:00</time>
        <ele>304.0</ele>
      </trkpt>
      <trkpt lat="44.3931" lon="9.094872">
        <time>1970-01-01T00:00:00+00:00</time>
        <ele>301.0</ele>
      </trkpt>
      <trkpt lat="44.393217" lon="9.094935">
        <time>1970-01-01T00:00:00+00:00</time>
        <ele>295.0</ele>
      </trkpt>
      <trkpt lat="44.393319" lon="9.094961">
        <time>1970-01-01T00:00:00+00:00</time>
        <ele>291.0</ele>
      </trkpt>
      <trkpt lat="44.393647" lon="9.094998">
        <time>1970-01-01T00:00:00+00:00</time>
        <ele>285.0</ele>
      </trkpt>
      <trkpt lat="44.39375" lon="9.094989">
        <time>1970-01-01T00:00:00+00:00</time>
        <ele>286.0</ele>
      </trkpt>
      <trkpt lat="44.393915" lon="9.095071">
        <time>1970-01-01T00:00:00+00:00</time>
        <ele>282.0</ele>
      </trkpt>
      <trkpt lat="44.394071" lon="9.094938">
        <time>1970-01-01T00:00:00+00:00</time>
        <ele>287.0</ele>
      </trkpt>
      <trkpt lat="44.394128" lon="9.094963">
        <time>1970-01-01T00:00:00+00:00</time>
        <ele>287.0</ele>
      </trkpt>
      <trkpt lat="44.394232" lon="9.095184">
        <time>1970-01-01T00:00:00+00:00</time>
        <ele>281.0</ele>
      </trkpt>
      <trkpt lat="44.394236" lon="9.095243">
        <time>1970-01-01T00:00:00+00:00</time>
        <ele>280.0</ele>
      </trkpt>
      <trkpt lat="44.394265" lon="9.095328">
        <time>1970-01-01T00:00:00+00:00</time>
        <ele>279.0</ele>
      </trkpt>
      <trkpt lat="44.394358" lon="9.095528">
        <time>1970-01-01T00:00:00+00:00</time>
        <ele>278.0</ele>
      </trkpt>
      <trkpt lat="44.394499" lon="9.095764">
        <time>1970-01-01T00:00:00+00:00</time>
        <ele>278.0</ele>
      </trkpt>
      <trkpt lat="44.394577" lon="9.095853">
        <time>1970-01-01T00:00:00+00:00</time>
        <ele>280.0</ele>
      </trkpt>
      <trkpt lat="44.394604" lon="9.095886">
        <time>1970-01-01T00:00:00+00:00</time>
        <ele>281.0</ele>
      </trkpt>
      <trkpt lat="44.394683" lon="9.095916">
        <time>1970-01-01T00:00:00+00:00</time>
        <ele>283.0</ele>
      </trkpt>
      <trkpt lat="44.394803" lon="9.095912">
        <time>1970-01-01T00:00:00+00:00</time>
        <ele>287.0</ele>
      </trkpt>
      <trkpt lat="44.394887" lon="9.095958">
        <time>1970-01-01T00:00:00+00:00</time>
        <ele>290.0</ele>
      </trkpt>
      <trkpt lat="44.39494" lon="9.096063">
        <time>1970-01-01T00:00:00+00:00</time>
        <ele>293.0</ele>
      </trkpt>
      <trkpt lat="44.394822" lon="9.096398">
        <time>1970-01-01T00:00:00+00:00</time>
        <ele>297.0</ele>
      </trkpt>
      <trkpt lat="44.394801" lon="9.096563">
        <time>1970-01-01T00:00:00+00:00</time>
        <ele>301.0</ele>
      </trkpt>
      <trkpt lat="44.394618" lon="9.096773">
        <time>1970-01-01T00:00:00+00:00</time>
        <ele>301.0</ele>
      </trkpt>
      <trkpt lat="44.394661" lon="9.09692">
        <time>1970-01-01T00:00:00+00:00</time>
        <ele>306.0</ele>
      </trkpt>
      <trkpt lat="44.394576" lon="9.096982">
        <time>1970-01-01T00:00:00+00:00</time>
        <ele>305.0</ele>
      </trkpt>
      <trkpt lat="44.394578" lon="9.097016">
        <time>1970-01-01T00:00:00+00:00</time>
        <ele>306.0</ele>
      </trkpt>
      <trkpt lat="44.394421" lon="9.097127">
        <time>1970-01-01T00:00:00+00:00</time>
        <ele>304.0</ele>
      </trkpt>
      <trkpt lat="44.394173" lon="9.097356">
        <time>1970-01-01T00:00:00+00:00</time>
        <ele>302.0</ele>
      </trkpt>
      <trkpt lat="44.394069" lon="9.097427">
        <time>1970-01-01T00:00:00+00:00</time>
        <ele>300.0</ele>
      </trkpt>
      <trkpt lat="44.394004" lon="9.097343">
        <time>1970-01-01T00:00:00+00:00</time>
        <ele>295.0</ele>
      </trkpt>
      <trkpt lat="44.393976" lon="9.097364">
        <time>1970-01-01T00:00:00+00:00</time>
        <ele>295.0</ele>
      </trkpt>
    </trkseg>
  </trk>
</gpx>
